Location: Bercimuel
(41.3983°N, 3.5711°W)
Time: 07:57:12
(UTC+00:00)

SL-24 R/B - Pass Details

Date: 15 May 2026
Orbit: 623 x 1072 km, 98.0° (Epoch: 6 June)

Event Time Altitude Azimuth Distance (km) Brightness Sun altitude
Rises 20:00:24 0° 12° (NNE) 2,965 7.8 -6.4°
Reaches altitude 10° 20:02:38 10° 11° (NNE) 2,024 7.0 -6.7°
Maximum altitude 20:06:59 85° 284° (WNW) 632 4.2 -7.4°
Drops below altitude 10° 20:11:16 10° 196° (SSW) 2,002 6.5 -8.1°
Sets 20:13:28 0° 196° (SSW) 2,928 7.3 -8.4°
